Flag for Germany Weather past 2 weeks in Freital, Saxony, Germany

Now
45 °F

Passing clouds.


Feels Like: 44 °F
Forecast: 39 / 53 °F
Wind: 3 mph from Southeast

Location: Dresden-Klotzsche

Current Time: Oct 24, 2014 at 9:17:59 PM

Latest Report: Oct 24, 2014 at 8:00 PM


Visibility: 11 mi

Pressure: 30.22 "Hg

Humidity: 89%

Dew point: 42 °F

Location of FreitalLocation

Historic Weather in Freital — Graph

°F

Freital temperature yesterday

Maximum temperature yesterday: 51 °F (at 4:00 PM)
Minimum temperature yesterday: 48 °F (at 10:00 PM)
Average temperature yesterday: 50 °F

Past Weeks' High & Low Weather Summary

 TemperatureHumidityPressure
High70 °F (Oct 19, 4:00 PM)99% (Oct 22, 10:00 PM)30.29 "Hg (Oct 22, 10:00 PM)
Low43 °F (Oct 22, 10:00 AM)55% (Oct 21, 3:00 PM)29.47 "Hg (Oct 21, 11:00 PM)
Average56 °F85%29.93 "Hg
* Reported Oct 9 8:00 PM — Oct 24 8:00 PM, Freital, Weather by CustomWeather, © 2014

Note: Actual official high and low records may vary slightly from our data, if they occured in-between our weather recording intervals... More about our weather records

Advertising

Freital weather history for previous 24 hours

 ConditionsComfort  
Time TempWeatherWind HumidityBarometerVisibility
8:00 PM
Oct 24
45 °FPassing clouds.3 mph89%30.22 "Hg11 mi
7:00 PM46 °FPassing clouds.5 mph89%30.21 "Hg12 mi
6:00 PM48 °FPassing clouds.3 mph85%30.20 "Hg11 mi
4:00 PM48 °FOvercast.3 mph82%30.23 "Hg9 mi
3:00 PM49 °FOvercast.3 mph82%30.24 "Hg10 mi
2:00 PM47 °FOvercast.2 mph86%30.26 "Hg10 mi
1:00 PM47 °FLow clouds.3 mph88%30.27 "Hg8 mi
12:00 PM47 °FLow clouds.2 mph87%30.28 "Hg7 mi
10:00 AM46 °FLow clouds.2 mph91%30.29 "Hg6 mi
9:00 AM46 °FLow clouds.2 mph92%30.28 "Hg5 mi
8:00 AM44 °FLow clouds.2 mph94%30.27 "Hg5 mi
7:00 AM44 °FOvercast.1 mph94%30.27 "Hg5 mi
6:00 AM44 °FPassing clouds.2 mph93%30.27 "Hg6 mi
5:00 AM45 °FPassing clouds.2 mph93%30.26 "Hg6 mi
4:00 AM46 °FOvercast.1 mph91%30.25 "Hg7 mi
3:00 AM46 °FOvercast.1 mph90%30.26 "Hg7 mi
2:00 AM46 °FOvercast.No wind89%30.26 "Hg7 mi
1:00 AM46 °FOvercast.1 mph91%30.26 "Hg7 mi
12:00 AM46 °FOvercast.No wind90%30.26 "Hg7 mi
10:00 PM
Oct 23
48 °FOvercast.2 mph90%30.25 "Hg7 mi
9:00 PM49 °FOvercast.1 mph90%30.23 "Hg7 mi
Weather by CustomWeather, © 2014

See weather overviewHow to use our weather pages